Location: Graswijk
(52.9667°N, 6.5500°E)
Time: 04:25:17
(UTC+00:00)

Cosmos 1805 - Pass Details

Date: 15 May 2026
Orbit: 411 x 414 km, 82.5° (Epoch: 6 June)

Event Time Altitude Azimuth Distance (km) Brightness Sun altitude
Rises 20:27:00 0° 354° (N) 2,384 7.5 -7.9°
Reaches altitude 10° 20:29:08 10° 2° (N) 1,513 6.3 -8.1°
Maximum altitude 20:32:16 41° 74° (ENE) 628 3.4 -8.4°
Enters shadow 20:35:02 12° 144° (SE) 1,363 4.7 -8.7°
